Location: Morgantown
(40.9734°N, 80.6323°W)
Time: 21:04:34
(UTC+00:00)

X-37B - Visible Passes

Search period start: 22 June 2021 00:00
Search period end: 02 July 2021 00:00
Orbit: 386 x 389 km, 45.0° (Epoch: 10 June)

Date Brightness Start Highest point End Pass type
(mag) Time Alt. Az. Time Alt. Az. Time Alt. Az.
22 Jun 3.3 03:01:02 10° SW 03:01:06 10° SW 03:01:06 10° SW visible
22 Jun 3.4 06:20:14 14° ENE 06:20:14 14° ENE 06:20:46 10° ENE visible
22 Jun 0.4 07:52:39 22° WNW 07:54:33 75° SSW 07:57:42 10° ESE visible
23 Jun 1.6 02:03:09 10° SSW 02:05:51 26° SE 02:08:33 10° E visible
23 Jun 1.8 03:39:10 10° W 03:41:14 36° W 03:41:14 36° W visible
23 Jun 1.7 08:32:13 23° SW 08:32:36 23° SW 08:35:12 10° SSE visible
24 Jun 0.4 02:40:46 10° WSW 02:43:56 81° SSE 02:47:07 10° ENE visible
24 Jun 2.6 04:17:44 10° WNW 04:19:34 27° NW 04:19:34 27° NW visible
25 Jun 0.8 01:42:34 10° SW 01:45:37 46° SSE 01:48:41 10° ENE visible
25 Jun 1.6 03:19:12 10° W 03:22:18 47° N 03:24:23 18° ENE visible
25 Jun 3.5 04:56:15 10° WNW 04:56:42 13° WNW 04:56:42 13° WNW visible
26 Jun 1.0 02:20:42 10° W 02:23:51 64° NNW 02:27:01 10° ENE visible
26 Jun 2.0 03:57:47 10° WNW 04:00:47 37° N 04:01:00 36° NNE visible
27 Jun 2.0 02:59:17 10° WNW 03:02:17 39° N 03:05:06 11° ENE visible
27 Jun 3.0 04:36:10 10° WNW 04:37:22 20° NW 04:37:22 20° NW visible
28 Jun 1.7 02:00:44 10° W 02:03:50 46° N 02:06:55 10° ENE visible
28 Jun 1.8 03:37:46 10° WNW 03:40:49 40° N 03:41:21 36° NE visible
29 Jun 2.0 02:39:19 10° WNW 02:42:19 37° N 02:45:16 10° ENE visible
29 Jun 2.7 04:16:04 10° WNW 04:17:32 25° WNW 04:17:32 25° WNW visible
30 Jun 2.0 01:40:48 10° WNW 01:43:50 39° N 01:46:51 10° ENE visible
30 Jun 1.3 03:17:42 10° WNW 03:20:49 49° NNE 03:21:26 41° NE visible
01 Jul 1.8 02:19:18 10° WNW 02:22:21 40° N 02:25:20 10° E visible
01 Jul 2.4 03:55:58 10° WNW 03:57:36 27° WNW 03:57:36 27° WNW visible
